Regional Weather Roundup
Issued by NWS

Home | Current Version | Previous Version | Text Only | Print | Product List | Glossary On
Versions: 1 2 3 4 5 6 7 8 9 10 11 12 13 14 15 16 17 18 19 20 21 22 23 24 25 26 27 28 29 30 31 32 33 34 35 36 37 38 39 40 41 42 43 44 45 46 47 48 49 50
000
ASUS43 KDTX 261110
RWRMI
MICHIGAN HOURLY REGIONAL WEATHER ROUNDUP
NATIONAL WEATHER SERVICE DETROIT/PONTIAC MI
600 AM EST FRI DEC 26 2014

NOTE: "FAIR" INDICATES FEW OR NO CLOUDS BELOW 12,000 FEET WITH NO
SIGNIFICANT WEATHER AND/OR OBSTRUCTION TO VISIBILITY.

MIZ047>049-052>055-059>063-066>070-074>076-081>083-261200-
SOUTHEAST LOWER MICHIGAN

CITY           SKY/WX    TMP DP  RH WIND       PRES   REMARKS
ADRIAN         CLEAR     30  28  92 S8        30.13S WCI  22
ALMA           MOCLDY    34  32  93 S6        30.03F WCI  29
ANN ARBOR      PTCLDY    30  28  92 S6        30.11F WCI  24
BAD AXE        CLOUDY    32  32 100 S6        30.08R WCI  26
CARO           MOCLDY    35  32  88 S7        30.07S WCI  29
DETROIT CITY   MOCLDY    36  30  79 S8        30.13F WCI  30
DETROIT        MOCLDY    31  29  92 S9        30.13F WCI  23
FLINT          CLOUDY    37  31  78 S8        30.08F WCI  31
GROSSE ILE     CLEAR     34  32  93 S13       30.13F WCI  25
HILLSDALE      CLEAR     32  32 100 S8        30.08S WCI  25
HOWELL         MOCLDY    33  32  95 S7        30.07S WCI  27

CITY           SKY/WX    TMP DP  RH WIND       PRES   REMARKS
JACKSON        PTCLDY    34  30  85 S10       30.07F WCI  26
LAMBERTVILLE   CLEAR     32  30  93 S7        30.14F WCI  26
LANSING        CLOUDY    36  31  82 S9G20     30.06S WCI  29
LAPEER         FAIR      35  32  87 SW8       30.08F WCI  29
MASON          MOCLDY    34  30  87 S6        30.06F WCI  29
MONROE         CLEAR     30  30 100 S6        30.13S WCI  24
MT. CLEMENS    MOCLDY    32  32 100 S7        30.10F WCI  25
PONTIAC        MOCLDY    32  30  92 S5        30.08F WCI  27
PORT HOPE        N/A     34  29  82 VRB3      30.05F
PORT HURON     CLOUDY    34  32  93 S8        30.11F WCI  27
TRI CITIES     PTCLDY    35  31  85 S9        30.05F WCI  28
TROY           MOCLDY    35  31  87 S5        30.13S WCI  31
SAGINAW HB     MOCLDY    34  34 100 S9        30.05S WCI  26
$$
MIZ043>046-050>051-056>058-064>065-071>073-077>080-261200-
SOUTHWEST LOWER MICHIGAN

CITY           SKY/WX    TMP DP  RH WIND       PRES   REMARKS
BATTLE CREEK   PTCLDY    34  30  85 S13       30.05F WCI  25
BENTON HARBOR  CLEAR     35  32  88 S10       30.04R WCI  27
BIG RAPIDS     CLOUDY    30  30 100 CALM      30.00R FOG
COLDWATER      CLEAR     34  31  91 MISG      30.08R
FREMONT        CLOUDY    33  32  96 SE3       30.00S
HOLLAND        PTCLDY    38  32  79 S9        30.03R WCI  31
GRAND RAPIDS   MOCLDY    36  31  82 S10       30.03S WCI  28
IONIA          FAIR      36  32  87 S9        30.03S WCI  29
KALAMAZOO      CLEAR     34  30  85 S10       30.06R WCI  26
LUDINGTON      PTCLDY    37  34  87 SE5       29.98R WCI  34
MARSHALL       CLEAR     33  31  92 S7        30.06S WCI  26
MOUNT PLEASANT MOCLDY    29  29  99 CALM      30.01F
MUSKEGON       MOCLDY    39  34  82 S7        30.01S WCI  34
SOUTH HAVEN    PTCLDY    37  32  81 S9        30.03S WCI  31
$$
MIZ016>042-261200-
NORTHERN LOWER MICHIGAN

CITY           SKY/WX    TMP DP  RH WIND       PRES   REMARKS
ALPENA         CLOUDY    35  32  88 S7        30.02S WCI  29
BEAVER ISLAND  CLOUDY    33  33 100 CALM      29.96F FOG
BELLAIRE       CLOUDY    37  33  87 CALM      29.98F
CADILLAC       CLOUDY    34  32  94 S3        29.96F
CHARLEVOIX     CLOUDY    38  36  90 S6        29.99F WCI  34
FRANKFORT      PTCLDY    37  34  92 CALM      29.96S
GAYLORD        CLOUDY    35  33  92 SW5       29.96F WCI  31
GRAYLING       CLOUDY    36  33  91 SW5       29.98F WCI  32
HARBOR SPRINGS CLOUDY    38  35  87 SW6       29.96S WCI  34
HOUGHTON LAKE  CLOUDY    34  31  88 S6        29.99S WCI  29
MANISTEE       PTCLDY    34  30  86 SE3       29.98R
OSCODA         CLOUDY    33  31  93 S5        30.03F WCI  29
PELLSTON       CLOUDY    38  34  85 S6        29.97F WCI  33
ROGERS CITY    CLOUDY    36  34  93 S8        30.00S WCI  29
TRAVERSE CITY  CLOUDY    39  34  82 VRB6      29.96F WCI  35
$$
MIZ007>008-015-261200-
EASTERN UPPER MICHIGAN

CITY           SKY/WX    TMP DP  RH WIND       PRES   REMARKS
KINROSS        CLOUDY    34  34 100 S5        29.96F WCI  30
MACKINAC ISLAN CLOUDY    34  34 100 SE3       29.97S FOG
NEWBERRY       CLOUDY    30  30 100 NW9       29.94S FOG     WCI  22
S. S. MARIE    CLOUDY    33  31  92 SE3       29.96S
MUNISING         N/A     33  30  88 SW5       29.94S WCI  29
$$
MIZ004>006-011>014-085-261200-
CENTRAL UPPER MICHIGAN

CITY           SKY/WX    TMP DP  RH WIND       PRES   REMARKS
MANISTIQUE     CLOUDY    31  31 100 CALM      29.95S FOG
ESCANABA       CLOUDY    32  28  86 CALM      29.94F
MENOMINEE      PTCLDY    28  27  93 CALM      29.93S
SAWYER-GWINN   CLOUDY    30  29  97 CALM      29.92S FOG
$$
MIZ001>003-009>011-084-261200-
WESTERN UPPER MICHIGAN

CITY           SKY/WX    TMP DP  RH WIND       PRES   REMARKS
IRON MOUNTAIN  CLOUDY    31  29  92 CALM      29.91S
HOUGHTON       CLOUDY    31  29  92 CALM      29.91R
COPPER HARBOR    N/A     34  29  82 CALM      29.92F
IRONWOOD       CLOUDY    28  28 100 CALM      29.90R
$$

ABBREVIATIONS USED IN REMARKS
   TC - TEMPERATURE IN CELSIUS
  WCI - WIND CHILL INDEX
   HX - HEAT INDEX
  VSB - VISIBILITY



USA.gov is the U.S. government's official web portal to all federal, state and local government web resources and services.